Flag for Hong Kong Weather past 2 weeks in Hong Kong, Hong Kong

Now
84 °F

Passing clouds.


Feels Like: 88 °F
Forecast: 78 / 89 °F
Wind: 5 mph from East

Location: National Airport

Current Time: Jul 29, 2014 at 12:39:21 AM

Latest Report: Jul 29, 2014 at 12:00 AM


Visibility: N/A

Pressure: 29.68 "Hg

Humidity: 62%

Dew point: 70 °F

Location of Hong KongLocation

Historic Weather in Hong Kong — Graph

°F

Hong Kong temperature yesterday

Maximum temperature yesterday: 91 °F (at 10:30 AM)
Minimum temperature yesterday: 82 °F (at 2:30 AM)
Average temperature yesterday: 87 °F

Past Weeks' High & Low Weather Summary

 TemperatureHumidityPressure
High95 °F (Jul 22, 2:00 PM)94% (Jul 17, 8:00 PM)29.86 "Hg (Jul 17, 8:00 PM)
Low79 °F (Jul 27, 4:00 AM)46% (Jul 28, 6:30 PM)29.45 "Hg (Jul 23, 5:00 PM)
Average87 °F73%29.71 "Hg
* Reported Jul 13 11:00 PM — Jul 28 11:30 PM, Hong Kong, Weather by CustomWeather, © 2014

Note: Actual official high and low records may vary slightly from our data, if they occured in-between our weather recording intervals... More about our weather records

Advertising

Hong Kong weather history for previous 24 hours

 ConditionsComfort  
Time TempWeatherWind HumidityBarometerVisibility
11:30 PM
Jul 28
86 °FPassing clouds.3 mph62%29.68 "HgN/A
11:00 PM84 °FPassing clouds.6 mph66%29.71 "HgN/A
10:30 PM86 °FPassing clouds.7 mph59%29.71 "HgN/A
10:00 PM86 °FPassing clouds.6 mph66%29.71 "HgN/A
9:30 PM86 °FPassing clouds.6 mph62%29.71 "HgN/A
9:00 PM88 °FPassing clouds.5 mph55%29.71 "HgN/A
8:30 PM86 °FPassing clouds.10 mph66%29.68 "HgN/A
8:00 PM88 °FPassing clouds.7 mph52%29.68 "HgN/A
7:30 PM88 °FPassing clouds.7 mph49%29.68 "HgN/A
7:00 PM90 °FPassing clouds.5 mph46%29.65 "HgN/A
6:30 PM90 °FPassing clouds.8 mph46%29.65 "HgN/A
6:00 PM90 °FPassing clouds.5 mph59%29.62 "HgN/A
5:30 PM90 °FPassing clouds.8 mph63%29.62 "HgN/A
5:00 PM91 °FPassing clouds.7 mph59%29.62 "HgN/A
4:30 PM91 °FPassing clouds.9 mph63%29.62 "HgN/A
4:00 PM90 °FPassing clouds.12 mph67%29.65 "HgN/A
3:30 PM91 °FPassing clouds.12 mph63%29.65 "HgN/A
3:00 PM91 °FPassing clouds.9 mph63%29.68 "HgN/A
2:30 PM91 °FPassing clouds.9 mph63%29.68 "HgN/A
2:00 PM90 °FPassing clouds.9 mph63%29.71 "HgN/A
1:30 PM90 °FPassing clouds.9 mph63%29.71 "HgN/A
1:00 PM90 °FPassing clouds.8 mph63%29.71 "HgN/A
12:30 PM90 °FPassing clouds.8 mph67%29.74 "HgN/A
12:00 PM90 °FPassing clouds.9 mph67%29.74 "HgN/A
11:30 AM90 °FPassing clouds.9 mph67%29.74 "HgN/A
11:00 AM91 °FPassing clouds.9 mph59%29.74 "HgN/A
10:30 AM91 °FPassing clouds.7 mph59%29.74 "HgN/A
10:00 AM90 °FPassing clouds.8 mph63%29.77 "HgN/A
9:30 AM88 °FPassing clouds.9 mph66%29.77 "HgN/A
9:00 AM88 °FPassing clouds.8 mph70%29.74 "HgN/A
8:30 AM86 °FPassing clouds.9 mph75%29.74 "HgN/A
8:00 AM86 °FPassing clouds.8 mph75%29.74 "HgN/A
7:30 AM84 °FPassing clouds.7 mph79%29.74 "HgN/A
7:00 AM82 °FPassing clouds.7 mph84%29.74 "HgN/A
6:30 AM82 °FPassing clouds.7 mph84%29.74 "HgN/A
6:00 AM82 °FPassing clouds.5 mph84%29.71 "HgN/A
5:30 AM82 °FPassing clouds.7 mph84%29.71 "HgN/A
5:00 AM82 °FPassing clouds.5 mph84%29.71 "HgN/A
4:30 AM82 °FPassing clouds.5 mph84%29.71 "HgN/A
4:00 AM82 °FPassing clouds.6 mph84%29.71 "HgN/A
3:30 AM82 °FPassing clouds.7 mph84%29.74 "HgN/A
3:00 AM82 °FPassing clouds.9 mph84%29.74 "HgN/A
2:30 AM82 °FPassing clouds.8 mph84%29.74 "HgN/A
2:00 AM84 °FPassing clouds.12 mph79%29.74 "HgN/A
1:30 AM84 °FPassing clouds.8 mph79%29.74 "HgN/A
1:00 AM84 °FPassing clouds.7 mph79%29.77 "HgN/A
12:30 AM84 °FPassing clouds.7 mph79%29.77 "HgN/A
12:00 AM84 °FPassing clouds.6 mph79%29.77 "HgN/A
Weather by CustomWeather, © 2014

See weather overviewHow to use our weather pages